PETITSAT (55130 NORAD) Tracking and Keplerian Element Data

This shows tracking and keplerian element data for the satellite.

Feedback or suggestion? Click here.




ElementValue
Catalog55130
NamePETITSAT
Epoch Orbit238
Epoch Day13.68748914
Epoch Year2023
RAAN13.7536
Inclination51.6421
Eccentricity0.0001827
Argument of Perigee267.9682
Mean Anonmoly92.1099
Mean Motion15.51496375
Decay Rate0.00101483
L11 55130U 98067UX 23013.68748914 .00101483 00000+0 16721-2 0 9995
L22 55130 51.6421 13.7536 0001827 267.9682 92.1099 15.51496375 2387



Live tracking and technical data element details for PETITSAT (NORAD 55130). PETITSAT can be tracked NOW for your location showing map with azimuth and elevation plus other details from your city location.







IsCatalogInMostPopularTable: catalog: 55130, numindb: 3
Update: records affected: 1



GetName: 55130 PETITSAT

Hit Count: updated at: Tue, 07 Feb 2023 14:32:58 GMT